(112221) = 2002 KH4

Discovered at Socorro on 2002-05-22 by LINEAR.

Orbit

Orbit type: Amor
1+ KM Near-Earth Object

Note: WebGL enabled browser required.

epoch2023-09-13.0
epoch JD2460200.5
perihelion date2022-09-10.91511
perihelion JD2459833.41511
argument of perihelion (°)356.31194
ascending node (°)230.09123
inclination (°)58.73854
eccentricity0.4447021
perihelion distance (AU)1.2603327
Tisserand w.r.t. Jupiter2.9
ΔV w.r.t. Earth (km/sec)19.6
semimajor axis (AU)2.2696514
mean anomaly (°)105.81120
mean daily motion (°/day)0.28824720
aphelion distance (AU)3.279
period (years)3.42
P-vector [x]-0.66584362
P-vector [y]-0.66079218
P-vector [z]-0.34641878
Q-vector [x]0.35597219
Q-vector [y]-0.68942008
Q-vector [z]0.63085953
absolute magnitude15.54
phase slope0.15
uncertainty0
referenceMPEC 2023-X279
observations used852
oppositions16
arc length (days)10392
first opposition used1995
last opposition used2023
residual rms (arc-secs)0.67
perturbers coarse indicatorM-v
perturbers precise indicator003Ek
first observation date used1995-07-01.0
last observation date used2023-12-13.0
computer nameMPCLINUX
JD of orbit computation2456937.194807
perihelion JD uncertainty (days)2.7605E-05
argument of perihelion uncertainty (°)1.1241E-05
ascending node uncertainty (°)9.0242E-06
inclination uncertainty (°)1.1317E-05
eccentricity uncertainty 8.6217E-08
perihelion distance uncertainty (AU)2.0034E-07
Minimum Orbit Intersection Distances (in AU)
for orbit epoch: 2460200.5, reference: E2023-W21
Mercury0.80588
Venus0.53761
Earth0.25011
Mars0.28687
Jupiter1.72179
Saturn5.87768
Uranus16.2615
Neptune26.5904

Observations

876 total observations over interval: 1995 07 01.20486 – 2023 12 13.123737
These data are available for download (format description).

Date (UT) J2000 RA J2000 Dec Magn Location Ref
1995 07 01.20486 14 37 12.45 +46 39 16.0   261 – Palomar Mountain-DSS MPS 59943
1995 07 01.25694 14 37 14.21 +46 39 33.4   261 – Palomar Mountain-DSS MPS 59943
2000 11 26.03644 03 53 39.51 -00 05 09.8   262 – European Southern Observatory, La Silla-DSS MPS 59943
2000 11 26.03775 03 53 39.41 -00 05 11.1 20.0 V 262 – European Southern Observatory, La Silla-DSS MPS 59943
2000 11 26.03906 03 53 39.34 -00 05 10.9   262 – European Southern Observatory, La Silla-DSS MPS 59943
2000 11 26.04104 03 53 39.18 -00 05 12.0   262 – European Southern Observatory, La Silla-DSS MPS 59943
2000 11 27.01994 03 52 26.38 -00 18 09.0 19.7 V 262 – European Southern Observatory, La Silla-DSS MPS 59943
2000 11 27.03016 03 52 25.63 -00 18 16.7   262 – European Southern Observatory, La Silla-DSS MPS 59943
2002 05 22.37913 20 15 51.45 +50 55 59.2 17.5   704 – Lincoln Laboratory ETS, New Mexico MPS 57810
2002 05 22.39319 20 15 51.68 +50 56 39.3 17.8   704 – Lincoln Laboratory ETS, New Mexico MPS 57810
2002 05 22.40733 20 15 51.75 +50 57 19.5 18.0   704 – Lincoln Laboratory ETS, New Mexico MPS 57810
2002 05 22.42170 20 15 51.98 +50 58 00.2 17.9   704 – Lincoln Laboratory ETS, New Mexico MPS 57810
2002 05 22.43600 20 15 52.12 +50 58 40.0 17.8   704 – Lincoln Laboratory ETS, New Mexico MPS 57810
2002 05 22.88728 20 15 57.61 +51 19 38.7   557 – Ondrejov MPS 57810
2002 05 22.88838 20 15 57.57 +51 19 40.9 17.6 R 046 – Klet Observatory, Ceske Budejovice MPS 57810
2002 05 22.88880 20 15 57.59 +51 19 42.4   557 – Ondrejov MPS 57810
2002 05 22.88978 20 15 57.67 +51 19 44.6   046 – Klet Observatory, Ceske Budejovice MPS 57810
2002 05 22.89031 20 15 57.63 +51 19 46.1   557 – Ondrejov MPS 57810
2002 05 22.89895 20 15 57.79 +51 20 11.5   046 – Klet Observatory, Ceske Budejovice MPS 57810
2002 05 22.90017 20 15 57.75 +51 20 13.5   046 – Klet Observatory, Ceske Budejovice MPS 57810
2002 05 22.90128 20 15 57.72 +51 20 17.3   046 – Klet Observatory, Ceske Budejovice MPS 57810
2002 05 23.43231 20 16 02.99 +51 44 55.2   670 – Camarillo MPS 57810
2002 05 23.43485 20 16 02.87 +51 45 02.4   670 – Camarillo MPS 57810
2002 05 24.39374 20 16 10.57 +52 28 40.5   670 – Camarillo MPS 57810
2002 05 24.43748 20 16 10.53 +52 30 38.1   670 – Camarillo MPS 57810
2002 05 24.46839 20 16 10.64 +52 32 00.0   658 – Dominion Astrophysical Observatory MPS 57810
2002 05 24.47036 20 16 10.65 +52 32 05.2   658 – Dominion Astrophysical Observatory MPS 57810
2002 05 24.47212 20 16 10.66 +52 32 10.0   658 – Dominion Astrophysical Observatory MPS 57810
2002 05 24.47442 20 16 10.62 +52 32 17.7 17.6 R 670 – Camarillo MPS 57810
2002 05 24.98958 20 16 13.73 +52 55 15.6 18.4 V 201 – Jonathan B. Postel Observatory MPS 57810
2002 05 24.99356 20 16 13.80 +52 55 25.7 18.2 V 201 – Jonathan B. Postel Observatory MPS 57810
2002 05 25.03825 20 16 13.88 +52 57 26.6 17.4 R 176 – Observatorio Astronomico de Consell MPS 57810
2002 05 25.04369 20 16 13.86 +52 57 41.3 18.2 R 176 – Observatorio Astronomico de Consell MPS 57810
2002 05 25.05214 20 16 13.83 +52 58 04.0 17.8 R 176 – Observatorio Astronomico de Consell MPS 57810
2002 05 25.05492 20 16 13.83 +52 58 11.5   176 – Observatorio Astronomico de Consell MPS 57810
2002 05 26.01512 20 16 16.28 +53 40 20.0 18.5 V 201 – Jonathan B. Postel Observatory MPS 57810
2002 05 26.01731 20 16 16.45 +53 40 26.4 18.0 V 201 – Jonathan B. Postel Observatory MPS 57811
2002 05 26.29794 20 16 16.57 +53 52 36.4 18.2 R 649 – Powell Observatory, Louisburg MPS 57811
2002 05 26.30999 20 16 16.50 +53 53 07.9 18.1 R 649 – Powell Observatory, Louisburg MPS 57811
2002 05 26.31409 20 16 16.53 +53 53 18.2 17.3 R 649 – Powell Observatory, Louisburg MPS 57811
2002 05 29.37860 20 15 59.98 +56 01 05.3 17.8 R 649 – Powell Observatory, Louisburg MPS 57811
2002 05 29.39951 20 15 59.67 +56 01 55.9 17.9 R 649 – Powell Observatory, Louisburg MPS 57811
2002 05 29.45764 20 15 59.03 +56 04 17.5   670 – Camarillo MPS 57811
2002 05 29.46015 20 15 59.05 +56 04 23.3   670 – Camarillo MPS 57811
2002 05 31.93692 20 15 20.86 +57 40 55.2 18.2 V 611 – Starkenburg Sternwarte, Heppenheim MPS 57811
2002 05 31.93972 20 15 20.78 +57 41 01.6 18.2 V 611 – Starkenburg Sternwarte, Heppenheim MPS 57811
2002 05 31.94250 20 15 20.73 +57 41 08.0 18.2 V 611 – Starkenburg Sternwarte, Heppenheim MPS 57811
2002 06 03.98041 20 14 00.92 +59 31 54.7   118 – Astronomical and Geophysical Observatory, Modra MPS 57811
2002 06 03.98174 20 14 00.82 +59 31 57.6   118 – Astronomical and Geophysical Observatory, Modra MPS 57811
2002 06 03.98291 20 14 00.77 +59 32 00.0   118 – Astronomical and Geophysical Observatory, Modra MPS 57811
2002 06 03.98418 20 14 00.77 +59 32 02.8 17.7 R 118 – Astronomical and Geophysical Observatory, Modra MPS 57811
2002 06 13.02655 20 06 12.09 +64 12 53.4 17.9 R 118 – Astronomical and Geophysical Observatory, Modra MPS 57811
2002 06 13.02990 20 06 11.85 +64 12 58.4   118 – Astronomical and Geophysical Observatory, Modra MPS 57811
2002 06 13.03255 20 06 11.68 +64 13 02.8   118 – Astronomical and Geophysical Observatory, Modra MPS 57811
2002 06 14.30867 20 04 36.21 +64 46 57.3 17.8 R 649 – Powell Observatory, Louisburg MPS 57811
2002 06 14.33384 20 04 34.12 +64 47 36.8 17.7 R 649 – Powell Observatory, Louisburg MPS 57811
2002 06 14.35779 20 04 32.12 +64 48 14.3 17.7 R 649 – Powell Observatory, Louisburg MPS 57811
2002 06 18.95664 19 57 44.94 +66 38 42.0   118 – Astronomical and Geophysical Observatory, Modra MPS 57811
2002 06 18.96150 19 57 44.41 +66 38 48.0   118 – Astronomical and Geophysical Observatory, Modra MPS 57811
2002 06 18.96263 19 57 44.31 +66 38 49.8 18.8 R 118 – Astronomical and Geophysical Observatory, Modra MPS 57811
2002 06 22.26160 19 51 53.79 +67 47 12.5 18.5 R 649 – Powell Observatory, Louisburg MPS 57811
2002 06 22.27521 19 51 52.13 +67 47 28.6 18.4 R 649 – Powell Observatory, Louisburg MPS 57811
2002 06 22.30058 19 51 49.13 +67 47 58.1 18.5 R 649 – Powell Observatory, Louisburg MPS 57811
2002 06 22.88538 19 50 42.29 +67 59 06.3   118 – Astronomical and Geophysical Observatory, Modra MPS 57811
2002 06 22.88898 19 50 41.83 +67 59 11.1   118 – Astronomical and Geophysical Observatory, Modra MPS 57811
2002 06 22.89172 19 50 41.53 +67 59 14.5   118 – Astronomical and Geophysical Observatory, Modra MPS 57811
2002 07 08.01091 19 15 04.82 +71 13 22.2   118 – Astronomical and Geophysical Observatory, Modra MPS 59008
2002 07 08.01272 19 15 04.59 +71 13 23.3   118 – Astronomical and Geophysical Observatory, Modra MPS 59008
2002 07 08.03065 19 15 01.64 +71 13 30.9   118 – Astronomical and Geophysical Observatory, Modra MPS 59008
2002 07 08.03252 19 15 01.42 +71 13 31.6   118 – Astronomical and Geophysical Observatory, Modra MPS 59008
2002 07 08.28432 19 14 21.89 +71 15 15.3 18.8 R 649 – Powell Observatory, Louisburg MPS 59008
2002 07 08.30178 19 14 19.09 +71 15 23.3 18.7 R 649 – Powell Observatory, Louisburg MPS 59008
2002 07 08.32236 19 14 15.71 +71 15 30.7 18.7 R 649 – Powell Observatory, Louisburg MPS 59008
2002 07 15.94332 18 54 27.52 +71 46 07.2 19.0 R A19 – Koln MPS 59008
2002 07 15.95223 18 54 26.18 +71 46 08.0 18.6 R A19 – Koln MPS 59008
2002 07 15.95955 18 54 24.79 +71 46 08.6 19.2 R 621 – Bergisch Gladbach MPS 59008
2002 07 15.96003 18 54 24.82 +71 46 08.7 18.7 R A19 – Koln MPS 59008
2002 07 15.96340 18 54 24.12 +71 46 09.4   621 – Bergisch Gladbach MPS 59008
2002 07 15.96785 18 54 23.73 +71 46 09.5 18.1 R A19 – Koln MPS 59008
2002 07 18.26439 18 48 43.88 +71 47 38.7 18.9 R 711 – McDonald Observatory, Fort Davis MPS 59008
2002 07 18.27116 18 48 42.89 +71 47 38.8 18.8 R 711 – McDonald Observatory, Fort Davis MPS 59008
2002 07 18.27797 18 48 41.76 +71 47 38.2 18.7 R 711 – McDonald Observatory, Fort Davis MPS 59008
2002 07 19.99150 18 44 37.86 +71 46 31.1   621 – Bergisch Gladbach MPS 59008
2002 07 19.99535 18 44 37.19 +71 46 30.9   621 – Bergisch Gladbach MPS 59008
2002 07 20.00060 18 44 36.44 +71 46 30.2   621 – Bergisch Gladbach MPS 59008
2002 09 23.14449 18 44 33.36 +58 08 27.6 19.7 R 644 – Palomar Mountain/NEAT MPS 142212
2002 09 23.15513 18 44 34.38 +58 08 15.7 19.8 R 644 – Palomar Mountain/NEAT MPS 142212
2002 09 23.16578 18 44 35.43 +58 08 03.9 19.8 R 644 – Palomar Mountain/NEAT MPS 142212
